When you browse on this site, cookies collect data to enhance your experience and personalize the content and advertising you see.
Visit our Privacy Policy to learn more. By continuing to use the site, you agree to this use of cookies and data.
  • In Österreich
  • Länderverzeichnis
  • Für 7 Tage
  • Wassertemperatur
  • Wetterkarte
  • News
  • Widgets
  • user-avatar
    Anmelden

    Stündliche Wetter Luninec

    Heute, 24 Oktober, Donnerstag

    Zeit Temperatur Niederschläge Wind Luftdruck Luftfeuchtigkeit
    00:00 +11°C° 0 mm 1 m/S 754 mmHg 86%
    01:00 +10°C° 0 mm 1 m/S 753 mmHg 87%
    02:00 +10°C° 0 mm 1 m/S 753 mmHg 89%
    03:00 +10°C° 0 mm 1 m/S 753 mmHg 90%
    04:00 +10°C° 0 mm 1 m/S 753 mmHg 91%
    05:00 +8°C° 0 mm 2 m/S 753 mmHg 92%
    06:00 +9°C° 0 mm 2 m/S 753 mmHg 91%
    07:00 +9°C° 0 mm 2 m/S 753 mmHg 90%
    08:00 +9°C° 0 mm 2 m/S 753 mmHg 89%
    09:00 +12°C° 0 mm 2 m/S 753 mmHg 83%
    10:00 +14°C° 0 mm 2 m/S 753 mmHg 78%
    11:00 +15°C° 0 mm 2 m/S 753 mmHg 72%
    12:00 +16°C° 0 mm 2 m/S 752 mmHg 70%
    13:00 +17°C° 0 mm 2 m/S 752 mmHg 69%
    14:00 +18°C° 0 mm 2 m/S 752 mmHg 67%
    15:00 +17°C° 0 mm 2 m/S 752 mmHg 73%
    16:00 +16°C° 0 mm 2 m/S 751 mmHg 79%
    17:00 +15°C° 0 mm 2 m/S 751 mmHg 85%
    18:00 +13°C° 0 mm 3 m/S 751 mmHg 87%
    19:00 +13°C° 0 mm 3 m/S 751 mmHg 88%
    20:00 +12°C° 0 mm 3 m/S 751 mmHg 90%
    21:00 +12°C° 0 mm 3 m/S 751 mmHg 91%
    22:00 +12°C° 0 mm 3 m/S 751 mmHg 93%
    23:00 +11°C° 0 mm 3 m/S 751 mmHg 94%

    Morgen, 25 Oktober, Freitag

    Zeit Temperatur Niederschläge Wind Luftdruck Luftfeuchtigkeit
    00:00 +11°C° 0 mm 3 m/S 751 mmHg 94%
    01:00 +11°C° 0 mm 3 m/S 751 mmHg 95%
    02:00 +11°C° 0 mm 3 m/S 751 mmHg 95%
    03:00 +11°C° 0 mm 3 m/S 751 mmHg 95%
    04:00 +11°C° 0 mm 3 m/S 751 mmHg 95%
    05:00 +11°C° 0 mm 3 m/S 750 mmHg 94%
    06:00 +11°C° 0 mm 3 m/S 750 mmHg 93%
    07:00 +11°C° 0 mm 3 m/S 750 mmHg 92%
    08:00 +11°C° 0 mm 3 m/S 751 mmHg 90%
    09:00 +12°C° 0 mm 3 m/S 751 mmHg 81%
    10:00 +14°C° 0 mm 3 m/S 751 mmHg 72%
    11:00 +17°C° 0 mm 3 m/S 751 mmHg 63%
    12:00 +18°C° 0 mm 3 m/S 751 mmHg 60%
    13:00 +18°C° 0 mm 3 m/S 750 mmHg 58%
    14:00 +19°C° 0 mm 3 m/S 750 mmHg 55%
    15:00 +18°C° 0 mm 3 m/S 750 mmHg 60%
    16:00 +17°C° 0 mm 2 m/S 750 mmHg 66%
    17:00 +15°C° 0 mm 2 m/S 750 mmHg 71%
    18:00 +15°C° 0 mm 2 m/S 750 mmHg 74%
    19:00 +14°C° 0 mm 2 m/S 751 mmHg 76%
    20:00 +13°C° 0 mm 2 m/S 751 mmHg 79%
    21:00 +13°C° 0 mm 2 m/S 752 mmHg 82%
    22:00 +12°C° 0 mm 2 m/S 752 mmHg 86%
    23:00 +12°C° 0 mm 2 m/S 752 mmHg 90%

    übermorgen, 26 Oktober, Samstag

    Zeit Temperatur Niederschläge Wind Luftdruck Luftfeuchtigkeit
    00:00 +12°C° 0 mm 2 m/S 753 mmHg 91%
    01:00 +12°C° 0 mm 2 m/S 753 mmHg 93%
    02:00 +10°C° 0 mm 2 m/S 753 mmHg 94%
    03:00 +10°C° 0 mm 2 m/S 753 mmHg 94%
    04:00 +10°C° 0 mm 2 m/S 754 mmHg 94%
    05:00 +10°C° 0 mm 2 m/S 754 mmHg 94%
    06:00 +11°C° 0 mm 1 m/S 754 mmHg 94%
    07:00 +11°C° 0 mm 1 m/S 754 mmHg 95%
    08:00 +11°C° 0 mm 1 m/S 754 mmHg 95%
    09:00 +13°C° 0 mm 1 m/S 754 mmHg 89%
    10:00 +14°C° 0 mm 2 m/S 754 mmHg 83%
    11:00 +15°C° 0 mm 2 m/S 754 mmHg 78%
    12:00 +16°C° 0 mm 3 m/S 754 mmHg 74%
    13:00 +17°C° 0 mm 3 m/S 754 mmHg 70%
    14:00 +17°C° 0 mm 3 m/S 754 mmHg 67%
    15:00 +16°C° 0 mm 3 m/S 753 mmHg 71%
    16:00 +14°C° 0 mm 3 m/S 753 mmHg 75%
    17:00 +14°C° 0 mm 2 m/S 752 mmHg 80%
    18:00 +13°C° 0 mm 3 m/S 752 mmHg 81%
    19:00 +13°C° 0 mm 3 m/S 752 mmHg 82%
    20:00 +12°C° 0 mm 3 m/S 752 mmHg 83%
    21:00 +12°C° 0 mm 3 m/S 752 mmHg 83%
    22:00 +12°C° 0 mm 3 m/S 752 mmHg 84%
    23:00 +12°C° 0 mm 3 m/S 752 mmHg 85%

    , 27 Oktober, Sonntag

    Zeit Temperatur Niederschläge Wind Luftdruck Luftfeuchtigkeit
    00:00 +12°C° 0 mm 3 m/S 751 mmHg 86%
    01:00 +12°C° 0 mm 3 m/S 751 mmHg 87%
    02:00 +11°C° 0 mm 3 m/S 751 mmHg 88%
    03:00 +11°C° 0 mm 3 m/S 751 mmHg 89%
    04:00 +11°C° 0 mm 3 m/S 750 mmHg 90%
    05:00 +10°C° 0 mm 3 m/S 750 mmHg 92%
    06:00 +11°C° 0 mm 3 m/S 750 mmHg 90%
    07:00 +11°C° 0 mm 3 m/S 750 mmHg 89%
    08:00 +11°C° 0 mm 3 m/S 750 mmHg 88%
    09:00 +13°C° 0 mm 4 m/S 750 mmHg 80%
    10:00 +14°C° 0 mm 4 m/S 750 mmHg 72%
    11:00 +16°C° 0 mm 5 m/S 750 mmHg 64%
    12:00 +17°C° 0 mm 5 m/S 749 mmHg 62%
    13:00 +17°C° 0 mm 5 m/S 749 mmHg 60%
    14:00 +19°C° 0 mm 5 m/S 748 mmHg 58%
    15:00 +18°C° 0 mm 4 m/S 748 mmHg 63%
    16:00 +17°C° 0 mm 4 m/S 748 mmHg 68%
    17:00 +14°C° 0 mm 3 m/S 748 mmHg 73%
    18:00 +14°C° 0 mm 3 m/S 748 mmHg 75%
    19:00 +13°C° 0 mm 4 m/S 747 mmHg 77%
    20:00 +13°C° 0 mm 4 m/S 747 mmHg 79%
    21:00 +12°C° 0 mm 3 m/S 747 mmHg 81%
    22:00 +12°C° 0 mm 3 m/S 747 mmHg 83%
    23:00 +11°C° 0 mm 3 m/S 747 mmHg 85%

    27 Oktober, Sonntag

    Zeit Temperatur Niederschläge Wind Luftdruck Luftfeuchtigkeit
    00:00 +12°C° 0 mm 3 m/S 751 mmHg 86%
    01:00 +12°C° 0 mm 3 m/S 751 mmHg 87%
    02:00 +11°C° 0 mm 3 m/S 751 mmHg 88%
    03:00 +11°C° 0 mm 3 m/S 751 mmHg 89%
    04:00 +11°C° 0 mm 3 m/S 750 mmHg 90%
    05:00 +10°C° 0 mm 3 m/S 750 mmHg 92%
    06:00 +11°C° 0 mm 3 m/S 750 mmHg 90%
    07:00 +11°C° 0 mm 3 m/S 750 mmHg 89%
    08:00 +11°C° 0 mm 3 m/S 750 mmHg 88%
    09:00 +13°C° 0 mm 4 m/S 750 mmHg 80%
    10:00 +14°C° 0 mm 4 m/S 750 mmHg 72%
    11:00 +16°C° 0 mm 5 m/S 750 mmHg 64%
    12:00 +17°C° 0 mm 5 m/S 749 mmHg 62%
    13:00 +17°C° 0 mm 5 m/S 749 mmHg 60%
    14:00 +19°C° 0 mm 5 m/S 748 mmHg 58%
    15:00 +18°C° 0 mm 4 m/S 748 mmHg 63%
    16:00 +17°C° 0 mm 4 m/S 748 mmHg 68%
    17:00 +14°C° 0 mm 3 m/S 748 mmHg 73%
    18:00 +14°C° 0 mm 3 m/S 748 mmHg 75%
    19:00 +13°C° 0 mm 4 m/S 747 mmHg 77%
    20:00 +13°C° 0 mm 4 m/S 747 mmHg 79%
    21:00 +12°C° 0 mm 3 m/S 747 mmHg 81%
    22:00 +12°C° 0 mm 3 m/S 747 mmHg 83%
    23:00 +11°C° 0 mm 3 m/S 747 mmHg 85%

    28 Oktober, Montag

    Zeit Temperatur Niederschläge Wind Luftdruck Luftfeuchtigkeit
    00:00 +11°C° 0 mm 3 m/S 747 mmHg 87%
    01:00 +10°C° 0 mm 3 m/S 746 mmHg 89%
    02:00 +10°C° 0 mm 3 m/S 746 mmHg 91%
    03:00 +10°C° 0 mm 3 m/S 746 mmHg 90%
    04:00 +10°C° 0 mm 3 m/S 746 mmHg 90%
    05:00 +11°C° 0 mm 3 m/S 746 mmHg 89%
    06:00 +11°C° 0 mm 3 m/S 746 mmHg 89%
    07:00 +11°C° 0 mm 4 m/S 746 mmHg 89%
    08:00 +11°C° 0 mm 4 m/S 747 mmHg 89%
    09:00 +11°C° 0 mm 4 m/S 747 mmHg 82%
    10:00 +12°C° 0 mm 4 m/S 747 mmHg 75%
    11:00 +12°C° 0 mm 4 m/S 747 mmHg 68%
    12:00 +12°C° 0 mm 4 m/S 747 mmHg 67%
    13:00 +11°C° 0 mm 4 m/S 748 mmHg 66%
    14:00 +11°C° 0 mm 3 m/S 748 mmHg 65%
    15:00 +10°C° 0 mm 3 m/S 748 mmHg 67%
    16:00 +10°C° 0 mm 2 m/S 748 mmHg 69%
    17:00 +9°C° 0 mm 2 m/S 748 mmHg 71%
    18:00 +9°C° 0 mm 2 m/S 748 mmHg 73%
    19:00 +8°C° 0 mm 2 m/S 748 mmHg 75%
    20:00 +8°C° 0 mm 1 m/S 749 mmHg 76%
    21:00 +8°C° 0 mm 1 m/S 749 mmHg 77%
    22:00 +8°C° 0 mm 1 m/S 749 mmHg 77%
    23:00 +7°C° 0 mm 1 m/S 749 mmHg 78%

    29 Oktober, Dienstag

    Zeit Temperatur Niederschläge Wind Luftdruck Luftfeuchtigkeit
    00:00 +7°C° 0 mm 1 m/S 749 mmHg 78%
    01:00 +6°C° 0 mm 0 m/S 749 mmHg 79%
    02:00 +5°C° 0 mm 0 m/S 749 mmHg 80%
    03:00 +5°C° 0 mm 0 m/S 749 mmHg 80%
    04:00 +6°C° 0 mm 1 m/S 749 mmHg 79%
    05:00 +6°C° 0 mm 1 m/S 749 mmHg 79%
    06:00 +6°C° 0 mm 1 m/S 749 mmHg 79%
    07:00 +7°C° 0 mm 1 m/S 749 mmHg 78%
    08:00 +7°C° 0 mm 1 m/S 749 mmHg 77%
    09:00 +8°C° 0 mm 1 m/S 749 mmHg 75%
    10:00 +9°C° 0 mm 1 m/S 749 mmHg 72%
    11:00 +9°C° 0 mm 1 m/S 749 mmHg 70%
    12:00 +10°C° 0.1 mm 1 m/S 749 mmHg 70%
    13:00 +10°C° 0.1 mm 1 m/S 749 mmHg 69%
    14:00 +9°C° 0.1 mm 0 m/S 749 mmHg 69%
    15:00 +8°C° 0.1 mm 0 m/S 749 mmHg 72%
    16:00 +8°C° 0.1 mm 0 m/S 749 mmHg 75%
    17:00 +7°C° 0.1 mm 0 m/S 749 mmHg 78%
    18:00 +8°C° 0.1 mm 1 m/S 749 mmHg 79%
    19:00 +8°C° 0.1 mm 1 m/S 749 mmHg 79%
    20:00 +8°C° 0.1 mm 1 m/S 749 mmHg 79%
    21:00 +7°C° 0 mm 1 m/S 750 mmHg 81%
    22:00 +6°C° 0 mm 1 m/S 750 mmHg 83%
    23:00 +6°C° 0 mm 1 m/S 750 mmHg 84%
    Mehr zeigen